Погода в Трубниковом Боре

Россия / Санкт-Петербург и Ленинградская область     59°16′00″N   31°23′52″E
темп.,
°C
ветер,
м/с
пор.,
м/с
влажн.,
%
обл.,
%
осадки,
мм/ч
давл.,
гПа
погр.,
м
2 марта, вт
вт200:00+2зсз4128998 0.0 1011917
03:000зсз5138980 0.0 1012628
06:00−1зсз4148911 0.0 1011575
09:00−1зсз513897 0.0 1011592
12:00+1сз5108413 0.0 1011700
15:00+1сз5107956 0.0 1013982
18:000сз5128181 0.0 1015865
21:00−1сз4128652 0.1 1017619
3 марта, ср
ср300:00−2зсз310910 0.0 1018356
03:00−2з411900 0.0 1018449
06:00−2зсз413902 0.0 1017456
09:00−2зсз5129016 0.0 1017553
12:00+1з5108226 0.0 1015672
15:00+1з5108155 0.0 1014738
18:00+1з41278100 0.0 1011712
21:00+1зюз51487100 0.0 1007777
4 марта, чт
чт400:00+2зюз61485100 0.1 1003848
03:00+2з51288100 0.1 1001811
06:000сз51194100 0.5 999850
09:00−3сз4117697 0.5 998699
12:00−1сз59660 0.0 9991118
15:00−1сз576831 0.0 10011166
18:00−3сз4789100 0.3 1002662
21:00−4ссз3691100 0.6 1003604
5 марта, пт
пт500:00−5ссз269297 0.1 1004551
03:00−6сз259386 0.3 1006286
06:00−6сз3689100 0.4 1006569
09:00−7сз368695 0.5 1007529
12:00−5сз347296 0.0 1008873
15:00−5сз346798 0.1 10091095
18:00−6сз2579100 0.1 1010670
21:00−7с259299 0.3 1012431
6 марта, сб
сб600:00−9с368891 0.1 1013492
03:00−11ссз378278 0.1 1014467
06:00−12ссз26820 0.0 1014385
09:00−11зсз13830 0.0 1014218
12:00−8з247230 0.0 1013783
15:00−6зюз246965 0.0 1012960
18:00−7ююз367598 0.0 1009319
21:00−7ю4107599 0.0 1005520